This is the latest recevied weather packets stored in our database for station/object KB9ZGZ. If no packets are shown the sender has not sent any weather packets the latest 10 day(s).
| Time | Temp. | Humidity | Pressure | Rain* | Wind** | Luminosity | Snow |
|---|---|---|---|---|---|---|---|
| 1777953641 | 20.56° C | 73% | 997 hPa | 0 mm | - | - | - |
| 1777952738 | 20.56° C | 74% | 996.9 hPa | 0 mm | - | - | - |
| 1777951846 | 20° C | 75% | 997 hPa | 0 mm | - | - | - |
| 1777950937 | 19.44° C | 77% | 997.3 hPa | 0 mm | - | - | - |
| 1777950037 | 18.33° C | 82% | 997.2 hPa | 0 mm | - | - | - |
| 1777949157 | 17.78° C | 84% | 997.2 hPa | 0 mm | - | - | - |
| 1777948237 | 18.33° C | 82% | 997.3 hPa | 0 mm | - | - | - |
| 1777947342 | 19.44° C | 79% | 997.2 hPa | 0 mm | - | - | - |
| 1777946421 | 20.56° C | 74% | 997 hPa | 0 mm | - | - | - |
| 1777945521 | 21.67° C | 68% | 996.7 hPa | 0 mm | - | - | - |
| 1777944615 | 21.67° C | 66% | 996.7 hPa | 0 mm | - | - | - |
| 1777943714 | 21.67° C | 66% | 996.6 hPa | 0 mm | - | - | - |
| 1777942812 | 21.67° C | 65% | 996.5 hPa | 0 mm | - | - | - |
| 1777941946 | 22.22° C | 63% | 996.5 hPa | 0 mm | - | - | - |
| 1777941041 | 23.33° C | 60% | 996.5 hPa | 0 mm | - | - | - |
| 1777940139 | 23.89° C | 59% | 996.5 hPa | 0 mm | - | - | - |
| 1777939240 | 23.89° C | 58% | 996.5 hPa | 0 mm | - | - | - |
| 1777938338 | 24.44° C | 59% | 996.8 hPa | 0 mm | - | - | - |
| 1777937448 | 24.44° C | 58% | 997.2 hPa | 0 mm | - | - | - |
| 1777936534 | 24.44° C | 57% | 997.6 hPa | 0 mm | - | - | - |
| 1777935633 | 24.44° C | 57% | 997.7 hPa | 0 mm | - | - | - |
| 1777934732 | 25° C | 57% | 997.8 hPa | 0 mm | - | - | - |
| 1777933836 | 24.44° C | 61% | 998.1 hPa | 0 mm | - | - | - |
| 1777932935 | 23.89° C | 60% | 998.1 hPa | 0 mm | - | - | - |
| 1777932028 | 23.89° C | 59% | 998.2 hPa | 0 mm | - | - | - |
* Rain since midnight (hover to see other rain measurements)
** Current wind speed in m/s (hover to see current wind gust speed)